Hourly Weather Russelsheim

Today, 16 June, Wednesday

Time Temperature Precipitation Wind Pressure Humidity
00:00 +20°C° 0 mm 2 mps 754 mmHg 83%
01:00 +20°C° 0 mm 2 mps 754 mmHg 86%
02:00 +20°C° 0 mm 1 mps 754 mmHg 87%
03:00 +20°C° 0 mm 1 mps 754 mmHg 88%
04:00 +20°C° 0 mm 1 mps 753 mmHg 89%
05:00 +21°C° 0 mm 1 mps 753 mmHg 85%
06:00 +22°C° 0 mm 1 mps 753 mmHg 80%
07:00 +23°C° 0 mm 1 mps 753 mmHg 76%
08:00 +25°C° 0 mm 1 mps 753 mmHg 68%
09:00 +27°C° 0 mm 1 mps 753 mmHg 60%
10:00 +29°C° 0 mm 2 mps 753 mmHg 52%
11:00 +30°C° 0 mm 2 mps 752 mmHg 48%
12:00 +31°C° 0 mm 2 mps 752 mmHg 43%
13:00 +32°C° 0 mm 2 mps 752 mmHg 39%
14:00 +32°C° 0 mm 2 mps 752 mmHg 39%
15:00 +32°C° 0 mm 2 mps 751 mmHg 39%
16:00 +32°C° 0 mm 2 mps 751 mmHg 39%
17:00 +31°C° 0 mm 2 mps 751 mmHg 45%
18:00 +30°C° 0 mm 2 mps 751 mmHg 51%
19:00 +29°C° 0 mm 2 mps 751 mmHg 57%
20:00 +27°C° 0 mm 2 mps 751 mmHg 62%
21:00 +26°C° 0 mm 2 mps 751 mmHg 66%
22:00 +24°C° 0 mm 1 mps 751 mmHg 71%
23:00 +23°C° 0 mm 1 mps 751 mmHg 73%

Tomorrow, 17 June, Thursday

Time Temperature Precipitation Wind Pressure Humidity
00:00 +23°C° 0 mm 1 mps 751 mmHg 75%
01:00 +22°C° 0 mm 1 mps 751 mmHg 77%
02:00 +22°C° 0 mm 1 mps 751 mmHg 78%
03:00 +21°C° 0 mm 1 mps 751 mmHg 79%
04:00 +21°C° 0 mm 1 mps 751 mmHg 80%
05:00 +22°C° 0 mm 1 mps 751 mmHg 75%
06:00 +23°C° 0 mm 1 mps 751 mmHg 70%
07:00 +24°C° 0 mm 1 mps 751 mmHg 66%
08:00 +26°C° 0 mm 1 mps 751 mmHg 60%
09:00 +28°C° 0 mm 2 mps 751 mmHg 54%
10:00 +30°C° 0 mm 2 mps 751 mmHg 48%
11:00 +31°C° 0 mm 3 mps 751 mmHg 46%
12:00 +33°C° 0 mm 3 mps 751 mmHg 45%
13:00 +34°C° 0 mm 3 mps 751 mmHg 43%
14:00 +34°C° 0 mm 3 mps 751 mmHg 43%
15:00 +34°C° 0 mm 3 mps 751 mmHg 44%
16:00 +34°C° 0 mm 3 mps 751 mmHg 44%
17:00 +34°C° 0 mm 2 mps 751 mmHg 48%
18:00 +32°C° 0 mm 2 mps 751 mmHg 52%
19:00 +31°C° 0 mm 1 mps 751 mmHg 57%
20:00 +29°C° 0 mm 1 mps 751 mmHg 61%
21:00 +26°C° 0 mm 0 mps 751 mmHg 66%
22:00 +24°C° 0 mm 0 mps 751 mmHg 71%
23:00 +23°C° 0 mm 0 mps 751 mmHg 73%

Day after tomorrow, 18 June, Friday

Time Temperature Precipitation Wind Pressure Humidity
00:00 +23°C° 0 mm 0 mps 751 mmHg 76%
01:00 +22°C° 0 mm 0 mps 751 mmHg 78%
02:00 +24°C° 0 mm 1 mps 751 mmHg 80%
03:00 +23°C° 0 mm 1 mps 751 mmHg 82%
04:00 +23°C° 0 mm 1 mps 751 mmHg 83%
05:00 +22°C° 0.1 mm 0 mps 752 mmHg 81%
06:00 +23°C° 0.1 mm 0 mps 752 mmHg 79%
07:00 +24°C° 0.1 mm 0 mps 752 mmHg 76%
08:00 +26°C° 0 mm 0 mps 752 mmHg 67%
09:00 +30°C° 0 mm 1 mps 751 mmHg 58%
10:00 +32°C° 0 mm 1 mps 751 mmHg 49%
11:00 +33°C° 0 mm 1 mps 751 mmHg 44%
12:00 +34°C° 0 mm 1 mps 751 mmHg 40%
13:00 +35°C° 0 mm 1 mps 751 mmHg 36%
14:00 +35°C° 0.1 mm 2 mps 751 mmHg 40%
15:00 +34°C° 0.1 mm 2 mps 750 mmHg 44%
16:00 +33°C° 0.1 mm 3 mps 750 mmHg 48%
17:00 +30°C° 0.8 mm 4 mps 750 mmHg 58%
18:00 +27°C° 0.8 mm 5 mps 751 mmHg 68%
19:00 +24°C° 0.8 mm 6 mps 752 mmHg 78%
20:00 +23°C° 1.3 mm 4 mps 752 mmHg 83%
21:00 +21°C° 1.3 mm 2 mps 752 mmHg 87%
22:00 +21°C° 1.3 mm 1 mps 752 mmHg 92%
23:00 +21°C° 0 mm 1 mps 753 mmHg 92%

19 June, Saturday

Time Temperature Precipitation Wind Pressure Humidity
00:00 +20°C° 0 mm 1 mps 753 mmHg 93%
01:00 +20°C° 0 mm 1 mps 753 mmHg 93%
02:00 +20°C° 0 mm 1 mps 753 mmHg 93%
03:00 +20°C° 0 mm 1 mps 753 mmHg 93%
04:00 +19°C° 0 mm 1 mps 753 mmHg 93%
05:00 +21°C° 0 mm 1 mps 753 mmHg 90%
06:00 +22°C° 0 mm 1 mps 754 mmHg 88%
07:00 +23°C° 0 mm 1 mps 754 mmHg 85%
08:00 +24°C° 0 mm 1 mps 754 mmHg 77%
09:00 +26°C° 0 mm 1 mps 754 mmHg 70%
10:00 +28°C° 0 mm 2 mps 754 mmHg 62%
11:00 +29°C° 0 mm 2 mps 753 mmHg 57%
12:00 +30°C° 0 mm 2 mps 753 mmHg 53%
13:00 +31°C° 0 mm 2 mps 753 mmHg 49%
14:00 +32°C° 0 mm 1 mps 753 mmHg 47%
15:00 +32°C° 0 mm 1 mps 752 mmHg 45%
16:00 +33°C° 0 mm 1 mps 752 mmHg 44%
17:00 +32°C° 0 mm 1 mps 752 mmHg 49%
18:00 +31°C° 0 mm 1 mps 752 mmHg 53%
19:00 +30°C° 0 mm 1 mps 751 mmHg 58%
20:00 +29°C° 0 mm 1 mps 751 mmHg 64%
21:00 +27°C° 0 mm 2 mps 751 mmHg 70%
22:00 +25°C° 0 mm 2 mps 751 mmHg 76%
23:00 +25°C° 0.2 mm 2 mps 751 mmHg 78%

20 June, Sunday

Time Temperature Precipitation Wind Pressure Humidity
00:00 +24°C° 0.2 mm 2 mps 750 mmHg 81%
01:00 +24°C° 0.2 mm 2 mps 750 mmHg 84%
02:00 +24°C° 0 mm 2 mps 750 mmHg 84%
03:00 +23°C° 0 mm 2 mps 749 mmHg 85%
04:00 +23°C° 0 mm 2 mps 749 mmHg 85%
05:00 +23°C° 0 mm 2 mps 749 mmHg 82%
06:00 +24°C° 0 mm 2 mps 748 mmHg 80%
07:00 +25°C° 0 mm 2 mps 748 mmHg 77%
08:00 +27°C° 0 mm 3 mps 748 mmHg 68%
09:00 +29°C° 0 mm 3 mps 747 mmHg 59%
10:00 +32°C° 0 mm 4 mps 747 mmHg 51%
11:00 +33°C° 0 mm 4 mps 747 mmHg 51%
12:00 +33°C° 0 mm 5 mps 748 mmHg 51%
13:00 +34°C° 0 mm 5 mps 748 mmHg 50%
14:00 +32°C° 0.9 mm 4 mps 748 mmHg 57%
15:00 +29°C° 0.9 mm 3 mps 748 mmHg 63%
16:00 +27°C° 0.9 mm 1 mps 749 mmHg 70%
17:00 +28°C° 0 mm 1 mps 748 mmHg 68%
18:00 +28°C° 0 mm 1 mps 748 mmHg 67%
19:00 +28°C° 0 mm 1 mps 748 mmHg 65%
20:00 +27°C° 0 mm 1 mps 748 mmHg 71%
21:00 +25°C° 0 mm 1 mps 749 mmHg 76%
22:00 +24°C° 0 mm 1 mps 749 mmHg 82%
23:00 +23°C° 0.3 mm 1 mps 749 mmHg 85%

21 June, Monday

Time Temperature Precipitation Wind Pressure Humidity
00:00 +22°C° 0.3 mm 1 mps 748 mmHg 88%
01:00 +21°C° 0.3 mm 1 mps 748 mmHg 90%
02:00 +21°C° 0 mm 1 mps 748 mmHg 91%
03:00 +21°C° 0 mm 1 mps 747 mmHg 91%
04:00 +20°C° 0 mm 1 mps 747 mmHg 92%
05:00 +21°C° 0.1 mm 1 mps 747 mmHg 90%
06:00 +21°C° 0.1 mm 1 mps 748 mmHg 88%
07:00 +22°C° 0.1 mm 1 mps 748 mmHg 86%
08:00 +23°C° 0.1 mm 2 mps 748 mmHg 81%
09:00 +24°C° 0.1 mm 2 mps 747 mmHg 76%
10:00 +25°C° 0.1 mm 2 mps 747 mmHg 70%
11:00 +25°C° 0.2 mm 2 mps 747 mmHg 72%
12:00 +25°C° 0.2 mm 2 mps 747 mmHg 74%
13:00 +25°C° 0.2 mm 1 mps 747 mmHg 75%
14:00 +24°C° 0.4 mm 2 mps 747 mmHg 79%
15:00 +24°C° 0.4 mm 2 mps 747 mmHg 82%
16:00 +23°C° 0.4 mm 2 mps 747 mmHg 86%
17:00 +23°C° 0.3 mm 1 mps 746 mmHg 87%
18:00 +22°C° 0.3 mm 1 mps 746 mmHg 89%
19:00 +22°C° 0.3 mm 1 mps 745 mmHg 90%
20:00 +21°C° 0 mm 1 mps 746 mmHg 91%
21:00 +21°C° 0 mm 1 mps 746 mmHg 92%
22:00 +20°C° 0 mm 1 mps 746 mmHg 92%
23:00 +20°C° 0 mm 1 mps 746 mmHg 93%
Show more